Weather History for KACP - June, 2013

Change the Weather History Date:

Saturday, June 15, 2013

  Actual Average (KPOE) Record (KPOE)
Temperature  
Mean Temperature 80 °F -  
Max Temperature 91 °F 86 °F 99 °F (2011)
Min Temperature 68 °F 68 °F 66 °F (2001)
Cooling Degree Days 14    
Growing Degree Days 30 (Base 50)    
Moisture  
Dew Point 72 °F    
Average Humidity 77    
Maximum Humidity 95    
Minimum Humidity 54    
Precipitation  
Precipitation 0.00 in - - ()
Sea Level Pressure  
Sea Level Pressure 29.97 in    
Wind  
Wind Speed 2 mph (ENE)    
Max Wind Speed 7 mph    
Max Gust Speed -    
Visibility 9 miles    
Events Thunderstorm    
Averages and records for this station are not official NWS values.
T = Trace of Precipitation, MM = Missing Value Source: NWS Daily Summary

Daily Weather History Graph

Daily Weather History Graph

Search for Another Location

Airport or City:

Trip Planner

Search our weather history database for the weather conditions in past years. The results will help you decide how hot, cold, wet, or windy it might be!

Date:

Astronomy

Jun. 15, 2013 Rise Set
Actual Time 6:07 AM CDT 8:15 PM CDT
Civil Twilight 5:39 AM CDT 8:43 PM CDT
Nautical Twilight 5:05 AM CDT 9:16 PM CDT
Astronomical Twilight 4:29 AM CDT 9:53 PM CDT
Moon 12:18 PM CDT (6/15) 12:12 AM CDT (6/15)
Length of Visible Light 15h 03m
Length of Day
14h 07m
Waxing Crescent, 40% of the Moon is Illuminated
Jun 15
Waxing Crescent
Jun 16
First Quarter
Jun 23
Full
Jun 29
Last Quarter
Jul 8
New

Hourly Weather History & Observations

Time (CDT) Temp. Heat Index Dew Point Humidity Pressure Visibility Wind Dir Wind Speed Gust Speed Precip Events Conditions
12:15 AM 76.3 °F - 74.1 °F 93% 29.96 in 10.0 mi North 3.5 mph - N/A   Scattered Clouds
12:35 AM 76.3 °F - 71.2 °F 84% 29.95 in 10.0 mi NNE 6.9 mph - N/A   Clear
12:55 AM 75.4 °F - 68.9 °F 80% 29.93 in 10.0 mi NNE 6.9 mph - N/A   Clear
1:15 AM 75.2 °F - 68.4 °F 79% 29.96 in 10.0 mi Calm Calm - N/A   Clear
1:35 AM 73.2 °F - 69.3 °F 87% 29.97 in 10.0 mi Calm Calm - N/A   Clear
1:55 AM 72.7 °F - 70.2 °F 92% 29.96 in 10.0 mi Calm Calm - N/A   Scattered Clouds
2:15 AM 72.7 °F - 69.1 °F 88% 29.95 in 10.0 mi ENE 3.5 mph - N/A   Clear
2:35 AM 72.9 °F - 68.0 °F 85% 29.95 in 10.0 mi Calm Calm - N/A   Clear
2:55 AM 71.6 °F - 68.4 °F 89% 29.96 in 10.0 mi Calm Calm - N/A   Clear
3:15 AM 70.7 °F - 68.9 °F 94% 29.96 in 10.0 mi Calm Calm - N/A   Clear
3:35 AM 71.8 °F - 68.2 °F 88% 29.96 in 10.0 mi Calm Calm - N/A   Scattered Clouds
3:55 AM 71.1 °F - 68.5 °F 92% 29.95 in 10.0 mi Calm Calm - N/A   Scattered Clouds
4:15 AM 70.7 °F - 68.4 °F 92% 29.94 in 10.0 mi North 6.9 mph - N/A   Clear
4:35 AM 71.2 °F - 68.0 °F 89% 29.95 in 10.0 mi Calm Calm - N/A   Clear
4:55 AM 70.9 °F - 68.0 °F 91% 29.95 in 10.0 mi Calm Calm - N/A   Clear
5:15 AM 70.2 °F - 67.5 °F 91% 29.96 in 10.0 mi Calm Calm - N/A   Clear
5:35 AM 69.1 °F - 67.3 °F 94% 29.96 in 10.0 mi Calm Calm - N/A   Clear
5:55 AM 68.7 °F - 67.1 °F 95% 29.96 in 7.0 mi Calm Calm - N/A   Clear
6:15 AM 69.1 °F - 67.1 °F 93% 29.97 in 7.0 mi Calm Calm - N/A   Clear
6:35 AM 68.9 °F - 67.1 °F 94% 29.97 in 7.0 mi Calm Calm - N/A   Clear
6:55 AM 69.4 °F - 67.1 °F 92% 29.98 in 10.0 mi Calm Calm - N/A   Clear
7:15 AM 70.3 °F - 67.8 °F 92% 29.98 in 10.0 mi Calm Calm - N/A   Clear
7:35 AM 72.7 °F - 68.5 °F 87% 29.99 in 10.0 mi Calm Calm - N/A   Clear
7:55 AM 74.3 °F - 68.9 °F 83% 30.00 in 10.0 mi Calm Calm - N/A   Clear
8:15 AM 76.1 °F - 68.7 °F 78% 30.00 in 10.0 mi Calm Calm - N/A   Clear
8:35 AM 77.4 °F - 68.7 °F 75% 30.00 in 10.0 mi East 4.6 mph - N/A   Clear
8:55 AM 78.8 °F - 68.7 °F 71% 30.01 in 10.0 mi East 5.8 mph - N/A   Clear
9:15 AM 79.9 °F - 69.3 °F 70% 30.01 in 10.0 mi East 3.5 mph - N/A   Clear
9:35 AM 80.6 °F 83.6 °F 69.3 °F 68% 30.01 in 10.0 mi ENE 3.5 mph - N/A   Clear
9:55 AM 81.9 °F 85.8 °F 70.3 °F 68% 30.00 in 10.0 mi ESE 4.6 mph - N/A   Clear
10:15 AM 82.8 °F 86.9 °F 70.3 °F 66% 30.00 in 10.0 mi East 3.5 mph - N/A   Clear
10:35 AM 83.3 °F 87.9 °F 70.9 °F 66% 30.01 in 10.0 mi Calm Calm - N/A   Clear
10:55 AM 84.0 °F 88.4 °F 70.2 °F 63% 30.01 in 10.0 mi Calm Calm - N/A   Clear
11:15 AM 84.7 °F 89.7 °F 70.9 °F 63% 30.00 in 10.0 mi Calm Calm - N/A   Clear
11:35 AM 84.9 °F 90.7 °F 72.1 °F 65% 30.00 in 10.0 mi Calm Calm - N/A   Clear
11:55 AM 85.8 °F 92.6 °F 73.0 °F 65% 30.00 in 10.0 mi Calm Calm - N/A   Clear
12:15 PM 86.4 °F 94.2 °F 73.6 °F 66% 30.00 in 10.0 mi SE 4.6 mph - N/A   Clear
12:35 PM 88.2 °F 96.9 °F 74.1 °F 63% 29.99 in 10.0 mi SE 3.5 mph - N/A   Clear
12:55 PM 87.6 °F 96.2 °F 74.1 °F 64% 29.99 in 10.0 mi Calm Calm - N/A   Scattered Clouds
1:15 PM 88.3 °F 97.4 °F 74.5 °F 63% 29.99 in 10.0 mi Calm Calm - N/A   Scattered Clouds
1:35 PM 87.8 °F 94.7 °F 72.5 °F 60% 29.99 in 10.0 mi Calm Calm - N/A   Scattered Clouds
1:55 PM 88.3 °F 95.9 °F 72.9 °F 60% 29.98 in 10.0 mi NE 4.6 mph - N/A   Scattered Clouds
2:15 PM 90.1 °F 97.8 °F 72.3 °F 56% 29.98 in 10.0 mi Calm Calm - N/A   Scattered Clouds
2:35 PM 87.8 °F 95.6 °F 73.4 °F 62% 29.97 in 10.0 mi NE 3.5 mph - N/A   Mostly Cloudy
2:55 PM 90.0 °F 98.5 °F 73.2 °F 58% 29.96 in 10.0 mi ENE 3.5 mph - N/A   Mostly Cloudy
3:15 PM 90.7 °F 99.0 °F 73.2 °F 56% 29.96 in 10.0 mi Calm Calm - N/A   Scattered Clouds
3:35 PM 90.5 °F 97.5 °F 72.0 °F 54% 29.96 in 10.0 mi North 3.5 mph - N/A   Scattered Clouds
3:55 PM 91.4 °F 99.5 °F 72.9 °F 54% 29.95 in 10.0 mi Calm Calm - N/A   Clear
4:15 PM 89.4 °F 96.8 °F 72.5 °F 57% 29.95 in 10.0 mi ENE 3.5 mph - N/A   Clear
4:35 PM 90.7 °F 98.5 °F 72.7 °F 55% 29.94 in 10.0 mi NE 4.6 mph - N/A   Scattered Clouds
4:55 PM 90.3 °F 97.7 °F 72.1 °F 55% 29.94 in 10.0 mi NNE 3.5 mph - N/A   Clear
5:15 PM 90.5 °F 98.1 °F 72.3 °F 55% 29.93 in 10.0 mi NNE 3.5 mph - N/A   Clear
5:35 PM 90.1 °F 98.3 °F 73.2 °F 57% 29.93 in 10.0 mi North 3.5 mph - N/A   Clear
5:55 PM 90.0 °F 97.4 °F 72.3 °F 56% 29.93 in 10.0 mi ENE 3.5 mph - N/A   Clear
6:15 PM 89.6 °F 97.7 °F 73.2 °F 58% 29.92 in 10.0 mi Calm Calm - N/A   Clear
6:35 PM 88.9 °F 98.1 °F 74.1 °F 62% 29.92 in 10.0 mi Calm Calm - N/A   Clear
6:55 PM 88.0 °F 97.0 °F 74.5 °F 64% 29.92 in 10.0 mi Calm Calm - N/A   Clear
7:15 PM 87.3 °F 96.8 °F 75.2 °F 67% 29.92 in 10.0 mi Calm Calm - N/A   Clear
7:35 PM 84.7 °F 94.8 °F 76.6 °F 77% 29.92 in 10.0 mi Calm Calm - N/A   Scattered Clouds
7:55 PM 81.5 °F 89.7 °F 77.9 °F 89% 29.92 in 7.0 mi Calm Calm - N/A Thunderstorm Overcast
8:15 PM 79.7 °F - 76.5 °F 90% 29.93 in 7.0 mi Calm Calm - N/A   Mostly Cloudy
8:35 PM 79.2 °F - 76.6 °F 92% 29.94 in 7.0 mi Calm Calm - N/A   Scattered Clouds
8:55 PM 78.8 °F - 76.1 °F 91% 29.94 in 7.0 mi Calm Calm - N/A   Clear
9:15 PM 78.3 °F - 76.3 °F 94% 29.95 in 5.0 mi Calm Calm - N/A   Clear
9:35 PM 77.5 °F - 75.4 °F 93% 29.96 in 7.0 mi Calm Calm - N/A   Clear
9:55 PM 77.7 °F - 75.6 °F 93% 29.97 in 7.0 mi Calm Calm - N/A   Clear
10:15 PM 77.2 °F - 75.4 °F 94% 29.98 in 3.0 mi SSW 3.5 mph - N/A   Scattered Clouds
10:35 PM 78.3 °F - 75.0 °F 90% 29.99 in 10.0 mi Calm Calm - N/A   Mostly Cloudy
10:55 PM 78.8 °F - 75.4 °F 89% 29.99 in 7.0 mi Calm Calm - N/A   Overcast
11:15 PM 78.1 °F - 75.4 °F 91% 30.00 in 7.0 mi Calm Calm - N/A   Scattered Clouds
11:35 PM 78.4 °F - 76.1 °F 92% 30.00 in 5.0 mi Calm Calm - N/A   Mostly Cloudy
11:55 PM 77.9 °F - 75.6 °F 92% 30.00 in 5.0 mi Calm Calm - N/A   Mostly Cloudy